Location: Newark
(22.3060°N, 114.2134°E)
Time: 20:34:13
(UTC+00:00)

Explorer 11/Cluster Stage 4 - Pass Details

Date: 28 July 2021
Orbit: 467 x 1256 km, 28.8° (Epoch: 27 September)

Event Time Altitude Azimuth Distance (km) Brightness Sun altitude
Rises 00:08:23 0° 218° (SW) 4,021 9.8 29.2°
Reaches altitude 10° 00:11:29 10° 208° (SSW) 3,133 9.4 30.0°
Maximum altitude 00:18:24 32° 149° (SSE) 1,994 9.2 31.5°
Drops below altitude 10° 00:25:26 10° 90° (E) 3,194 11.1 33.1°
Sets 00:28:37 0° 81° (E) 4,109 11.3 33.9°
